Date String (YYYY-MM-DD hh:mm:ss) UTC,Instrument flags,Ambient pressure (hPa),Sample flow (lpm),Bypass flow (lpm),Sample temperature (°C),Ambient temperature (°C),ASC tube jacket temperature (°C),LED temperature (°C),Box temperature (°C),Sample RH (%),Span deviation,Mass concentration (μg/m³),Mass concentration (μg/m³),Mass concentration (μg/m³)
DateTimeUTC,F1_M11,P_M11,Q1_M11,Q2_M11,T1_M11,T2_M11,T3_M11,T4_M11,T5_M11,U1_M11,ZSPAN_M11,X0_M11,X2_M11,X1_M11
2022-01-03 20:00:00,,0823.8,5.00,0.00,24.5,23.8,00.0,33.4,26.3,09.4,0000.0,0002.71,0002.53,0002.37
2022-01-03 20:01:00,,0823.8,4.99,0.00,24.5,23.9,00.0,33.4,26.3,09.6,0000.0,0003.65,0003.29,0003.18
2022-01-03 20:02:00,,0823.7,5.01,0.00,24.5,23.9,00.0,33.4,26.3,09.5,0000.0,0004.62,0003.78,0003.66
2022-01-03 20:03:00,,0823.7,4.99,0.00,24.5,24.0,00.0,33.4,26.4,09.6,0000.0,0005.56,0004.25,0004.11
2022-01-03 20:04:00,,0823.7,5.01,0.00,24.6,24.0,00.0,33.4,26.4,09.6,0000.0,0006.59,0004.73,0004.56
2022-01-03 20:05:00,,0823.8,4.99,0.00,24.6,24.0,00.0,33.4,26.4,09.0,0000.0,0007.41,0005.19,0004.99
2022-01-03 20:06:00,,0823.8,5.00,0.00,24.6,24.1,00.0,33.5,26.5,09.1,0000.0,0007.98,0005.72,0005.51
2022-01-03 20:07:00,,0823.8,5.00,0.00,24.6,24.0,00.0,33.5,26.5,08.7,0000.0,0008.38,0006.12,0005.92
2022-01-03 20:08:00,,0823.7,4.99,0.00,24.6,24.1,00.0,33.5,26.5,07.8,0000.0,0008.64,0006.33,0006.12
2022-01-03 20:09:00,,0823.7,5.02,0.00,24.6,24.1,00.0,33.5,26.5,07.7,0000.0,0008.78,0006.43,0006.22
2022-01-03 20:10:00,,0823.7,4.99,0.00,24.7,24.2,00.0,33.5,26.6,07.8,0000.0,0009.16,0006.46,0006.24
2022-01-03 20:11:00,,0823.8,5.02,0.00,24.7,24.2,00.0,33.5,26.6,08.2,0000.0,0009.70,0006.36,0006.15
2022-01-03 20:12:00,,0823.7,5.00,0.00,24.7,24.3,00.0,33.5,26.6,08.5,0000.0,0009.68,0006.33,0006.11
2022-01-03 20:13:00,,0823.7,4.99,0.00,24.8,24.3,00.0,33.6,26.7,08.5,0000.0,0009.62,0006.29,0006.08
2022-01-03 20:14:00,,0823.7,5.02,0.00,24.8,24.4,00.0,33.6,26.7,08.7,0000.0,0009.63,0006.30,0006.08
2022-01-03 20:15:00,,0823.7,5.00,0.00,24.9,24.5,00.0,33.6,26.8,08.7,0000.0,0009.63,0006.29,0006.09
2022-01-03 20:16:00,,0823.7,4.99,0.00,24.9,24.5,00.0,33.6,26.8,09.1,0000.0,0009.64,0006.30,0006.09
2022-01-03 20:17:00,,0823.7,5.01,0.00,24.9,24.6,00.0,33.7,26.9,09.6,0000.0,0009.58,0006.24,0006.04
2022-01-03 20:18:00,,0823.7,5.01,0.00,25.0,24.6,00.0,33.7,26.9,09.4,0000.0,0009.53,0006.19,0005.99
2022-01-03 20:19:00,,0823.7,4.99,0.00,25.0,24.7,00.0,33.7,27.0,09.3,0000.0,0009.57,0006.27,0006.08
2022-01-03 20:20:00,,0823.6,5.02,0.00,25.1,24.7,00.0,33.8,27.0,09.1,0000.0,0009.63,0006.35,0006.16
2022-01-03 20:21:00,,0823.7,4.99,0.00,25.1,24.7,00.0,33.8,27.0,09.1,0000.0,0009.37,0006.42,0006.23
2022-01-03 20:22:00,,0823.6,5.00,0.00,25.1,24.8,00.0,33.8,27.1,09.0,0000.0,0008.76,0006.46,0006.28
2022-01-03 20:23:00,,0823.6,5.01,0.00,25.2,24.8,00.0,33.9,27.1,09.2,0000.0,0009.62,0006.42,0006.24
2022-01-03 20:24:00,,0823.7,4.99,0.00,25.2,24.8,00.0,33.9,27.2,09.2,0000.0,0010.41,0006.41,0006.23
2022-01-03 20:25:00,,0823.6,5.00,0.00,25.2,24.9,00.0,33.9,27.2,09.1,0000.0,0010.44,0006.38,0006.19
2022-01-03 20:26:00,,0823.5,5.01,0.00,25.3,24.9,00.0,34.0,27.3,08.9,0000.0,0010.46,0006.35,0006.13
2022-01-03 20:27:00,,0823.5,4.99,0.00,25.3,24.9,00.0,34.0,27.3,08.3,0000.0,0010.43,0006.30,0006.06
2022-01-03 20:28:00,,0823.6,5.01,0.00,25.4,25.0,00.0,34.0,27.3,08.4,0000.0,0010.34,0006.20,0005.95
2022-01-03 20:29:00,,0823.6,5.00,0.00,25.4,25.0,00.0,34.1,27.4,08.3,0000.0,0010.28,0006.11,0005.84
2022-01-03 20:30:00,,0823.6,5.02,0.00,25.4,25.1,00.0,34.1,27.4,08.6,0000.0,0010.26,0006.03,0005.74
2022-01-03 20:31:00,,0823.5,4.99,0.00,25.5,25.1,00.0,34.1,27.5,07.7,0000.0,0010.29,0005.96,0005.65
2022-01-03 20:32:00,,0823.5,5.00,0.00,25.5,25.2,00.0,34.2,27.6,07.9,0000.0,0010.23,0005.88,0005.56
2022-01-03 20:33:00,,0823.4,4.98,0.00,25.6,25.2,00.0,34.2,27.6,08.0,0000.0,0010.15,0005.80,0005.48
2022-01-03 20:34:00,,0823.4,5.01,0.00,25.6,25.2,00.0,34.3,27.6,07.9,0000.0,0009.09,0005.74,0005.41
2022-01-03 20:35:00,,0823.4,5.01,0.00,25.6,25.2,00.0,34.3,27.6,08.1,0000.0,0008.38,0005.69,0005.35
2022-01-03 20:36:00,,0823.4,4.99,0.00,25.7,25.3,00.0,34.3,27.6,08.7,0000.0,0008.27,0005.63,0005.31
2022-01-03 20:37:00,,0823.5,5.02,0.00,25.7,25.3,00.0,34.4,27.7,08.8,0000.0,0008.13,0005.56,0005.27
2022-01-03 20:38:00,,0823.5,4.98,0.00,25.7,25.3,00.0,34.4,27.7,08.9,0000.0,0008.05,0005.52,0005.25
2022-01-03 20:39:00,,0823.5,5.01,0.00,25.8,25.3,00.0,34.4,27.7,08.4,0000.0,0008.41,0005.55,0005.27
2022-01-03 20:40:00,,0823.4,5.00,0.00,25.8,25.3,00.0,34.5,27.8,08.0,0000.0,0008.39,0005.54,0005.27
2022-01-03 20:41:00,,0823.5,5.01,0.00,25.8,25.3,00.0,34.5,27.8,08.4,0000.0,0008.25,0005.48,0005.22
2022-01-03 20:42:00,,0823.5,4.98,0.00,25.8,25.3,00.0,34.5,27.8,08.8,0000.0,0008.24,0005.49,0005.24
2022-01-03 20:43:00,,0823.5,5.02,0.00,25.9,25.3,00.0,34.5,27.8,09.3,0000.0,0008.46,0005.74,0005.48
2022-01-03 20:44:00,,0823.4,5.00,0.00,25.9,25.3,00.0,34.6,27.8,09.1,0000.0,0008.79,0006.09,0005.83
2022-01-03 20:45:00,,0823.5,5.00,0.00,25.9,25.3,00.0,34.6,27.9,09.0,0000.0,0009.11,0006.39,0006.10
2022-01-03 20:46:00,,0823.5,5.01,0.00,25.9,25.3,00.0,34.6,27.8,09.0,0000.0,0009.41,0006.68,0006.40
2022-01-03 20:47:00,,0823.4,5.00,0.00,25.9,25.3,00.0,34.6,27.8,09.0,0000.0,0009.60,0006.92,0006.66
2022-01-03 20:48:00,,0823.4,5.01,0.00,25.9,25.2,00.0,34.6,27.8,09.2,0000.0,0009.94,0007.28,0007.00
2022-01-03 20:49:00,,0823.4,4.99,0.00,25.9,25.2,00.0,34.7,27.8,09.3,0000.0,0010.35,0007.67,0007.38
2022-01-03 20:50:00,,0823.4,5.00,0.00,25.8,25.1,00.0,34.7,27.7,08.9,0000.0,0010.37,0008.02,0007.76
2022-01-03 20:51:00,,0823.4,5.00,0.00,25.8,25.0,00.0,34.7,27.6,08.7,0000.0,0010.76,0008.44,0008.18
2022-01-03 20:52:00,,0823.4,5.01,0.00,25.8,24.9,00.0,34.7,27.6,08.7,0000.0,0011.28,0008.91,0008.61
2022-01-03 20:53:00,,0823.4,4.99,0.00,25.8,24.9,00.0,34.7,27.5,08.8,0000.0,0011.97,0009.28,0009.00
2022-01-03 20:54:00,,0823.5,5.01,0.00,25.7,24.9,00.0,34.6,27.5,08.9,0000.0,0012.15,0009.44,0009.13
2022-01-03 20:55:00,,0823.5,4.99,0.00,25.7,24.8,00.0,34.6,27.4,09.0,0000.0,0012.24,0009.50,0009.18
2022-01-03 20:56:00,,0823.4,5.02,0.00,25.6,24.8,00.0,34.6,27.3,09.1,0000.0,0012.28,0009.61,0009.30
2022-01-03 20:57:00,,0823.3,4.98,0.00,25.6,24.8,00.0,34.6,27.3,08.9,0000.0,0012.63,0009.68,0009.36
2022-01-03 20:58:00,,0823.3,5.01,0.00,25.6,24.8,00.0,34.6,27.3,08.8,0000.0,0012.97,0009.79,0009.46
2022-01-03 20:59:00,,0823.4,5.01,0.00,25.6,24.7,00.0,34.6,27.3,08.8,0000.0,0012.95,0009.80,0009.47
